Location: Melbourne
(37.8170°S, 144.9670°E)
Time: 20:31:01
(UTC+10:00)

ADEOS Rocket - Visible Passes

Search period start: 30 June 2016 00:00
Search period end: 10 July 2016 00:00
Orbit: 858 x 1308 km, 98.7° (Epoch: 28 June)

Date Brightness Start Highest point End Pass type
(mag) Time Alt. Az. Time Alt. Az. Time Alt. Az.
30 Jun 5.6 04:06:55 10° NNE 04:06:59 10° NNE 04:06:59 10° NNE visible
30 Jun 5.8 18:54:09 10° SSW 18:58:50 17° WSW 19:03:24 10° W visible
01 Jul 5.4 05:04:21 10° NNW 05:04:22 10° NNW 05:04:22 10° NNW visible
01 Jul 5.0 18:03:52 10° S 18:10:48 36° WSW 18:17:21 10° NW visible
02 Jul 5.5 04:14:33 10° NNE 04:14:47 11° NNE 04:14:47 11° NNE visible
02 Jul 5.9 19:02:27 10° SSW 19:06:23 15° SW 19:10:15 10° W visible
03 Jul 5.1 18:11:51 10° S 18:18:27 32° WSW 18:24:41 10° WNW visible
04 Jul 5.5 04:22:14 10° N 04:22:35 12° N 04:22:35 12° N visible
04 Jul 6.0 19:10:58 10° SSW 19:13:57 13° SW 19:16:52 10° WSW visible
05 Jul 5.3 18:19:53 10° S 18:26:04 28° WSW 18:31:56 10° WNW visible
06 Jul 5.4 04:29:58 10° N 04:30:24 12° N 04:30:24 12° N visible
06 Jul 4.2 17:30:16 10° S 17:37:47 57° WSW 17:44:39 10° NNW visible
06 Jul 6.1 19:20:04 10° SW 19:21:28 11° SW 19:22:51 10° WSW visible
07 Jul 5.5 18:27:56 10° S 18:33:41 24° WSW 18:39:07 10° WNW visible
08 Jul 5.4 04:37:46 10° N 04:38:13 12° N 04:38:13 12° N visible
08 Jul 4.4 17:38:10 10° S 17:45:27 50° WSW 17:52:08 10° NW visible
09 Jul 5.6 18:36:03 10° SSW 18:41:16 21° WSW 18:46:13 10° WNW visible
